Regional Weather Roundup
Issued by NWS

Home | Current Version | Previous Version | Graphics & Text | Print | Product List | Glossary Off
Versions: 1 2 3 4 5 6 7 8 9 10 11 12 13 14 15 16 17 18 19 20 21 22 23 24 25 26 27 28 29 30 31 32 33 34 35 36 37 38 39 40 41 42 43 44 45 46 47 48 49 50

000
ASUS43 KDMX 271303
RWRIA

WEATHER ROUNDUP FOR IOWA
NATIONAL WEATHER SERVICE DES MOINES IA
800 AM CDT SAT AUG 27 2016

NOTE: "FAIR" INDICATES FEW OR NO CLOUDS BELOW 12,000 FEET WITH NO
SIGNIFICANT WEATHER AND/OR OBSTRUCTIONS TO VISIBILITY.

* - THESE STATIONS ARE NOT NWS STATIONS...THUS NOT UNDER NWS
QUALITY CONTROL.  THEY ALSO DO NOT REPORT WEATHER SUCH
AS PRECIPITATION OR FOG.

IAZ001>003-012>014-020>022-031>034-043>046-271400-
   NORTHWEST IOWA

CITY           SKY/WX    TMP DP  RH WIND       PRES   REMARKS
CARROLL *      FOG       63  63 100 CALM      30.04R VSB 3/4
CHEROKEE *     CLOUDY    62  62 100 CALM      30.03S FOG
DENISON *      FOG       63  63 100 SE3       30.02R VSB 1/4
LE MARS *      CLOUDY    63  63 100 MISG      30.03S FOG
ORANGE CITY *  DRIZZLE   63  63 100 CALM      30.03S
SHELDON *      CLOUDY    61  61 100 S7        30.02S FOG
SIOUX CITY     FOG       65  63  93 CALM      30.02S VSB 1
SPENCER        LGT RAIN  61  59  93 SE7       30.04R FOG
STORM LAKE *   FOG       61  61 100 SE5       30.04S VSB<1/4
$$

IAZ055>058-069>071-079>083-090>094-271400-
   SOUTHWEST IOWA

CITY           SKY/WX    TMP DP  RH WIND       PRES   REMARKS
ATLANTIC *     FOG       64  64 100 CALM      30.03S VSB 1/4
AUDUBON *      FOG       63  61  94 CALM      30.05R VSB 1/4
CLARINDA *       N/A     68  68 100 MISG      30.04S
COUNCIL BLFS * FOG       66  66 100 S5        30.03R VSB<1/4
CRESTON *      FOG       66  66 100 CALM      30.04S VSB 1/4
HARLAN  *      FOG       64  64 100 CALM      30.07R VSB<1/4
LAMONI         CLOUDY    68  68 100 VRB3      30.04R
RED OAK *      FOG       68  68 100 CALM      30.03R VSB 1/4
SHENANDOAH *   CLOUDY    68 -40   1 CALM      30.02S HAZE
$$

IAZ047>049-059>061-072>074-084-271400-
   CENTRAL IOWA

CITY           SKY/WX    TMP DP  RH WIND       PRES   REMARKS
AMES           CLOUDY    63  63 100 E3        30.03R
ANKENY *         N/A    N/A N/A N/A MISG        N/A
BOONE *        CLOUDY    63  61  94 SE3       30.03R FOG
CHARITON *       N/A     66  66 100 MISG      30.03S FOG
DES MOINES     FOG       65  63  93 CALM      30.03R VSB 1
GRINNELL*      CLOUDY    65  64  96 CALM      30.03R FOG
KNOXVILLE *    CLOUDY    66  66 100 SW5       30.02R FOG
MARSHALLTOWN   CLOUDY    64  64 100 NE3       30.02S FOG
NEWTON *       CLOUDY    64  64 100 CALM      30.03R FOG
PERRY *        CLOUDY    63  62  99 SE3       30.04S FOG
$$

IAZ004>006-015-016-023>025-035-036-271400-
   NORTH CENTRAL IOWA

CITY           SKY/WX    TMP DP  RH WIND       PRES   REMARKS
ALGONA *       CLOUDY    61  61 100 SE3       30.05S FOG
ESTHERVILLE    CLOUDY    59  59 100 SE9       30.04R FOG
FORT DODGE *   CLOUDY    61  57  88 CALM      30.05R
MASON CITY     CLOUDY    61  60  97 SE5       30.06R
FOREST CITY *    N/A    N/A N/A N/A MISG        N/A
WEBSTER CITY * CLOUDY    63  63 100 SE7       30.02R
IOWA FALLS *   CLOUDY    63  61  93 E5        30.05R
$$

IAZ007>011-017>019-026>030-037>042-050>054-066-271400-
   NORTHEAST IOWA

CITY           SKY/WX    TMP DP  RH WIND       PRES   REMARKS
CEDAR RAPIDS   CLOUDY    67  67 100 E5        30.02R FOG
CHARLES CITY * CLOUDY    63  63 100 E8        30.05R
CLINTON *      CLOUDY    71  69  93 SE6       30.05S
DECORAH *      CLOUDY    61  61 100 E6G14     30.05F
DUBUQUE        CLOUDY    64  64 100 E7        30.05S FOG
MONTICELLO *   CLOUDY    66  64  94 VRB5      30.03S FOG
OELWEIN *      LGT RAIN  63  63 100 E8        30.05R
WATERLOO       CLOUDY    63  62  97 E5        30.02S FOG
$$

IAZ064-065-067-068-078-271400-
   EAST CENTRAL IOWA

CITY           SKY/WX    TMP DP  RH WIND       PRES   REMARKS
DAVENPORT      CLOUDY    71  69  93 S7        30.04S
IOWA CITY      CLOUDY    70  69  97 S7        30.03S
MT. PLEASANT * CLOUDY    71  71 100 SW7       30.04S FOG
MUSCATINE *    CLOUDY    72  70  94 S9        30.04R
QUAD CITIES    MOSUNNY   72  69  90 S3        30.03S
$$

IAZ062-063-075>077-085>089-095>099-271400-
   SOUTHEAST IOWA

CITY           SKY/WX    TMP DP  RH WIND       PRES   REMARKS
BURLINGTON     CLOUDY    70  70 100 S9        30.04R
FAIRFIELD *    CLOUDY    70  68  94 VRB7      30.03R
FORT MADISON * CLOUDY    72  72 100 CALM      30.05S FOG
KEOKUK *       MOSUNNY   72  70  94 SW6       30.04S
OSKALOOSA *    CLOUDY    68  67  97 SW6       30.03R
CENTERVILLE *    N/A     70  68  94 CALM      30.06R
OTTUMWA        PTSUNNY   69  67  93 SW7       30.02R
WASHINGTON *   CLOUDY    70  70 100 S7G14     30.04R
$$

ABBREVIATIONS USED IN REMARKS
   TC - TEMPERATURES IN CELSIUS
  WCI - WIND CHILL INDEX
   HX - HEAT INDEX
  VSB - VISIBILITY
$$





USA.gov is the U.S. government's official web portal to all federal, state and local government web resources and services.